Weather History for Okeechobee, FL

Change the Weather History Date:

Saturday, November 17, 2012

  Actual Average Record
Temperature  
Mean Temperature 69 °F -  
Max Temperature 78 °F 78 °F 86 °F (1980)
Min Temperature 60 °F 58 °F 38 °F (1970)
Cooling Degree Days 4    
Growing Degree Days 19 (Base 50)    
Moisture  
Dew Point 60 °F    
Average Humidity 84    
Maximum Humidity 100    
Minimum Humidity 51    
Precipitation  
Precipitation 0.00 in - - ()
Sea Level Pressure  
Sea Level Pressure 30.10 in    
Wind  
Wind Speed 7 mph (NNE)    
Max Wind Speed 14 mph    
Max Gust Speed 20 mph    
Visibility 9 miles    
Events Thunderstorm    
Averages and records for this station are not official NWS values.
T = Trace of Precipitation, MM = Missing Value Source: NWS Daily Summary

Daily Weather History Graph

Daily Weather History Graph

Search for Another Location

Airport:

Trip Planner

Search our weather history database for the weather conditions in past years. The results will help you decide how hot, cold, wet, or windy it might be!

Date:

Astronomy

Nov. 17, 2012 Rise Set
Actual Time 6:45 AM EST 5:31 PM EST
Civil Twilight 6:20 AM EST 5:55 PM EST
Nautical Twilight 5:52 AM EST 6:24 PM EST
Astronomical Twilight 5:24 AM EST 6:51 PM EST
Moon 10:28 AM EST (11/17) 9:37 PM EST (11/17)
Length of Visible Light 11h 34m
Length of Day
10h 45m
Waxing Crescent, 20% of the Moon is Illuminated
Nov 17
Waxing Crescent
Nov 20
First Quarter
Nov 28
Full
Dec 6
Last Quarter
Dec 13
New

Hourly Weather History & Observations

Time (EST) Temp. Dew Point Humidity Pressure Visibility Wind Dir Wind Speed Gust Speed Precip Events Conditions
12:15 AM 60.8 °F 59.0 °F 94% 30.10 in 10.0 mi North 6.9 mph - N/A   Scattered Clouds
12:35 AM 60.8 °F 59.0 °F 94% 30.10 in 10.0 mi North 8.1 mph - N/A   Overcast
12:55 AM 60.8 °F 59.0 °F 94% 30.10 in 10.0 mi North 8.1 mph - N/A   Overcast
1:15 AM 60.8 °F 59.0 °F 94% 30.10 in 7.0 mi NNW 8.1 mph - N/A Thunderstorm Overcast
1:35 AM 60.8 °F 59.0 °F 94% 30.10 in 7.0 mi NNW 6.9 mph - N/A   Overcast
1:55 AM 60.8 °F 59.0 °F 94% 30.09 in 7.0 mi North 9.2 mph - N/A   Overcast
2:15 AM 60.8 °F 59.0 °F 94% 30.09 in 7.0 mi North 8.1 mph - N/A Thunderstorm Overcast
2:35 AM 60.8 °F 59.0 °F 94% 30.08 in 7.0 mi North 8.1 mph - N/A   Overcast
2:55 AM 60.8 °F 59.0 °F 94% 30.07 in 7.0 mi North 5.8 mph - N/A   Overcast
3:15 AM 60.8 °F 59.0 °F 94% 30.07 in 7.0 mi North 6.9 mph - N/A   Overcast
3:35 AM 60.8 °F 59.0 °F 94% 30.08 in 5.0 mi North 6.9 mph - N/A   Mostly Cloudy
3:55 AM 60.8 °F 59.0 °F 94% 30.09 in 7.0 mi North 5.8 mph - N/A   Mostly Cloudy
4:15 AM 60.8 °F 59.0 °F 94% 30.09 in 7.0 mi NNW 5.8 mph - N/A   Overcast
4:35 AM 60.8 °F 59.0 °F 94% 30.09 in 5.0 mi North 5.8 mph - N/A   Overcast
4:55 AM 60.8 °F 60.8 °F 100% 30.10 in 7.0 mi North 8.1 mph - N/A   Overcast
5:15 AM 60.8 °F 60.8 °F 100% 30.10 in 7.0 mi North 9.2 mph - N/A   Overcast
5:35 AM 60.8 °F 60.8 °F 100% 30.10 in 7.0 mi North 6.9 mph - N/A   Overcast
5:55 AM 60.8 °F 60.8 °F 100% 30.11 in 7.0 mi NNE 5.8 mph - N/A   Overcast
6:15 AM 60.8 °F 60.8 °F 100% 30.11 in 10.0 mi NNE 4.6 mph - N/A   Mostly Cloudy
6:35 AM 60.8 °F 59.0 °F 94% 30.12 in 10.0 mi NNE 4.6 mph - N/A   Scattered Clouds
6:55 AM 60.8 °F 60.8 °F 100% 30.12 in 10.0 mi NNE 4.6 mph - N/A   Mostly Cloudy
7:15 AM 60.8 °F 60.8 °F 100% 30.12 in 10.0 mi North 6.9 mph - N/A   Overcast
7:35 AM 60.8 °F 60.8 °F 100% 30.12 in 10.0 mi North 6.9 mph - N/A   Mostly Cloudy
8:15 AM 64.4 °F 60.8 °F 88% 30.12 in 10.0 mi NNE 4.6 mph - N/A   Scattered Clouds
8:35 AM 64.4 °F 60.8 °F 88% 30.13 in 10.0 mi North 8.1 mph - N/A   Clear
8:55 AM 68.0 °F 60.8 °F 78% 30.13 in 10.0 mi North 5.8 mph - N/A   Clear
9:15 AM 68.0 °F 60.8 °F 78% 30.14 in 10.0 mi North 5.8 mph - N/A   Clear
9:35 AM 69.8 °F 60.8 °F 73% 30.13 in 10.0 mi NNE 6.9 mph - N/A   Clear
9:55 AM 71.6 °F 62.6 °F 73% 30.13 in 10.0 mi NE 8.1 mph - N/A   Clear
10:15 AM 71.6 °F 60.8 °F 69% 30.14 in 10.0 mi ENE 9.2 mph - N/A   Clear
10:35 AM 73.4 °F 60.8 °F 65% 30.13 in 10.0 mi ENE 6.9 mph - N/A   Clear
10:55 AM 73.4 °F 60.8 °F 65% 30.13 in 10.0 mi ENE 8.1 mph - N/A   Clear
11:15 AM 75.2 °F 60.8 °F 61% 30.12 in 10.0 mi NE 5.8 mph - N/A   Scattered Clouds
11:35 AM 75.2 °F 60.8 °F 61% 30.12 in 10.0 mi NNE 11.5 mph - N/A   Scattered Clouds
11:55 AM 77.0 °F 60.8 °F 57% 30.11 in 10.0 mi ENE 6.9 mph - N/A   Scattered Clouds
1:15 PM 78.8 °F 60.8 °F 54% 30.08 in 10.0 mi NE 8.1 mph - N/A   Scattered Clouds
1:35 PM 78.8 °F 59.0 °F 51% 30.07 in 10.0 mi ENE 9.2 mph - N/A   Scattered Clouds
1:55 PM 77.0 °F 60.8 °F 57% 30.07 in 10.0 mi East 5.8 mph - N/A   Scattered Clouds
2:35 PM 75.2 °F 59.0 °F 57% 30.07 in 10.0 mi ENE 6.9 mph - N/A   Scattered Clouds
2:55 PM 75.2 °F 60.8 °F 61% 30.06 in 10.0 mi ENE 10.4 mph - N/A   Clear
3:15 PM 75.2 °F 59.0 °F 57% 30.06 in 10.0 mi ENE 9.2 mph - N/A   Scattered Clouds
3:35 PM 75.2 °F 60.8 °F 61% 30.06 in 10.0 mi NE 9.2 mph - N/A   Scattered Clouds
3:55 PM 75.2 °F 60.8 °F 61% 30.07 in 10.0 mi NE 13.8 mph - N/A   Scattered Clouds
4:15 PM 71.6 °F 60.8 °F 69% 30.07 in 10.0 mi NE 11.5 mph 19.6 mph N/A   Scattered Clouds
4:35 PM 71.6 °F 60.8 °F 69% 30.08 in 10.0 mi NE 8.1 mph 17.3 mph N/A   Scattered Clouds
4:55 PM 69.8 °F 62.6 °F 78% 30.08 in 10.0 mi NNE 12.7 mph 17.3 mph N/A   Scattered Clouds
5:15 PM 69.8 °F 62.6 °F 78% 30.08 in 10.0 mi NNE 10.4 mph - N/A   Clear
5:35 PM 68.0 °F 60.8 °F 78% 30.09 in 10.0 mi NE 8.1 mph - N/A   Clear
5:55 PM 68.0 °F 60.8 °F 78% 30.09 in 10.0 mi NNE 8.1 mph - N/A   Clear
6:15 PM 68.0 °F 60.8 °F 78% 30.09 in 10.0 mi NE 5.8 mph - N/A   Clear
6:35 PM 64.4 °F 60.8 °F 88% 30.10 in 10.0 mi NNE 5.8 mph - N/A   Clear
6:55 PM 64.4 °F 60.8 °F 88% 30.10 in 10.0 mi NNE 5.8 mph - N/A   Clear
7:15 PM 64.4 °F 60.8 °F 88% 30.10 in 10.0 mi NNE 5.8 mph - N/A   Clear
7:35 PM 62.6 °F 60.8 °F 94% 30.10 in 10.0 mi North 4.6 mph - N/A   Clear
8:35 PM 64.4 °F 60.8 °F 88% 30.12 in 10.0 mi North 5.8 mph - N/A   Clear
8:55 PM 62.6 °F 60.8 °F 94% 30.12 in 10.0 mi North 6.9 mph - N/A   Clear
9:15 PM 62.6 °F 60.8 °F 94% 30.12 in 10.0 mi North 6.9 mph - N/A   Clear
9:35 PM 62.6 °F 60.8 °F 94% 30.13 in 10.0 mi North 9.2 mph - N/A   Clear
9:55 PM 62.6 °F 60.8 °F 94% 30.13 in 10.0 mi North 10.4 mph - N/A   Clear
10:15 PM 62.6 °F 60.8 °F 94% 30.13 in 10.0 mi North 9.2 mph - N/A   Clear
10:35 PM 62.6 °F 60.8 °F 94% 30.13 in 10.0 mi North 6.9 mph - N/A   Clear
10:55 PM 62.6 °F 60.8 °F 94% 30.13 in 10.0 mi North 5.8 mph - N/A   Clear
11:15 PM 62.6 °F 60.8 °F 94% 30.12 in 10.0 mi North 6.9 mph - N/A   Clear
11:35 PM 62.6 °F 60.8 °F 94% 30.12 in 10.0 mi North 5.8 mph - N/A   Clear
11:55 PM 62.6 °F 60.8 °F 94% 30.12 in 10.0 mi NNW 5.8 mph - N/A   Clear